Location: Niagara
(43.2500°N, 79.0670°W)
Time: 12:13:44
(UTC-04:00)

Tiangong 2 - Pass Details

Date: 13 October 2017
Orbit: 388 x 392 km, 42.8° (Epoch: 20 October)

Event Time Altitude Azimuth Distance (km) Brightness Sun altitude
Exits shadow 05:53:33 63° 233° (SW) 439 1.0 -17.9°
Maximum altitude 05:53:56 76° 173° (S) 405 1.1 -17.9°
Drops below altitude 10° 05:57:09 10° 87° (E) 1,422 5.3 -17.3°
Sets 05:59:14 0° 85° (E) 2,279 6.8 -16.9°
